TimeCDT,TemperatureF,Dew PointF,Humidity,Sea Level PressureIn,VisibilityMPH,Wind Direction,Wind SpeedMPH,Gust SpeedMPH,PrecipitationIn,Events,Conditions,WindDirDegrees,DateUTC
12:15 AM,32.9,25.9,75,29.69,10.0,WNW,19.6,29.9,N/A,,Scattered Clouds,300,2013-03-18 05:15:00
12:35 AM,32.9,25.7,75,29.69,10.0,WNW,16.1,23.0,N/A,,Mostly Cloudy,300,2013-03-18 05:35:00
12:55 AM,33.3,21.2,61,29.70,10.0,NW,18.4,32.2,N/A,,Mostly Cloudy,310,2013-03-18 05:55:00
1:15 AM,32.7,22.5,66,29.70,10.0,NW,16.1,25.3,N/A,,Clear,310,2013-03-18 06:15:00
1:35 AM,33.1,20.1,59,29.71,10.0,NW,18.4,31.1,N/A,,Clear,310,2013-03-18 06:35:00
1:55 AM,32.0,21.2,64,29.72,10.0,NW,15.0,20.7,N/A,,Clear,310,2013-03-18 06:55:00
2:15 AM,32.2,19.8,60,29.74,10.0,NW,24.2,31.1,N/A,,Clear,310,2013-03-18 07:15:00
2:35 AM,32.2,16.0,51,29.76,10.0,NW,31.1,38.0,N/A,,Mostly Cloudy,320,2013-03-18 07:35:00
2:55 AM,32.0,16.0,52,29.76,10.0,NW,25.3,31.1,N/A,,Overcast,320,2013-03-18 07:55:00
3:15 AM,31.5,16.3,54,29.77,10.0,NW,19.6,29.9,N/A,,Overcast,320,2013-03-18 08:15:00
3:35 AM,30.7,14.7,52,29.78,10.0,NNW,23.0,34.5,N/A,,Mostly Cloudy,330,2013-03-18 08:35:00
3:55 AM,29.3,15.1,55,29.79,10.0,NW,19.6,31.1,N/A,,Clear,320,2013-03-18 08:55:00
4:15 AM,28.4,14.7,57,29.80,10.0,NW,17.3,24.2,N/A,,Clear,310,2013-03-18 09:15:00
4:35 AM,27.1,14.0,58,29.80,10.0,NW,18.4,23.0,N/A,,Clear,310,2013-03-18 09:35:00
4:55 AM,26.2,13.8,59,29.80,10.0,NW,16.1,-,N/A,,Scattered Clouds,310,2013-03-18 09:55:00
5:15 AM,26.2,13.8,59,29.80,10.0,NW,17.3,21.9,N/A,,Mostly Cloudy,320,2013-03-18 10:15:00
5:35 AM,25.5,13.5,60,29.80,10.0,NNW,10.4,20.7,N/A,,Overcast,330,2013-03-18 10:35:00
5:55 AM,24.6,13.1,62,29.81,10.0,NNW,12.7,-,N/A,,Mostly Cloudy,330,2013-03-18 10:55:00
6:15 AM,24.3,13.1,63,29.81,10.0,NW,10.4,-,N/A,,Mostly Cloudy,320,2013-03-18 11:15:00
6:35 AM,23.9,13.5,64,29.82,10.0,NW,10.4,-,N/A,,Overcast,310,2013-03-18 11:35:00
6:55 AM,24.8,14.0,64,29.83,10.0,NW,13.8,20.7,N/A,,Overcast,320,2013-03-18 11:55:00
7:15 AM,24.4,13.5,63,29.84,10.0,NW,16.1,26.5,N/A,,Overcast,310,2013-03-18 12:15:00
7:35 AM,23.9,14.0,66,29.85,10.0,NNW,17.3,-,N/A,,Overcast,330,2013-03-18 12:35:00
7:55 AM,23.5,14.9,70,29.86,10.0,NW,15.0,-,N/A,,Overcast,320,2013-03-18 12:55:00
8:15 AM,23.0,11.3,61,29.87,10.0,NW,27.6,33.4,N/A,,Overcast,320,2013-03-18 13:15:00
8:35 AM,23.0,9.1,55,29.87,10.0,NW,20.7,29.9,N/A,,Overcast,310,2013-03-18 13:35:00
8:55 AM,22.8,7.5,52,29.87,10.0,NW,23.0,39.1,N/A,,Mostly Cloudy,310,2013-03-18 13:55:00
9:15 AM,23.0,7.3,51,29.88,10.0,NW,26.5,36.8,N/A,,Clear,310,2013-03-18 14:15:00
9:35 AM,23.0,6.3,49,29.89,10.0,NW,28.8,34.5,N/A,,Clear,310,2013-03-18 14:35:00
9:55 AM,23.4,7.0,50,29.90,10.0,NW,26.5,35.7,N/A,,Clear,310,2013-03-18 14:55:00
10:15 AM,23.5,7.2,50,29.90,10.0,NW,25.3,33.4,N/A,,Clear,310,2013-03-18 15:15:00
10:35 AM,23.5,6.4,48,29.91,10.0,NW,21.9,35.7,N/A,,Clear,310,2013-03-18 15:35:00
10:55 AM,24.3,6.4,47,29.92,10.0,NW,26.5,32.2,N/A,,Clear,320,2013-03-18 15:55:00
11:15 AM,24.1,5.2,45,29.92,10.0,NW,27.6,38.0,N/A,,Clear,320,2013-03-18 16:15:00
11:35 AM,24.4,6.1,46,29.92,10.0,NW,21.9,33.4,N/A,,Clear,310,2013-03-18 16:35:00
11:55 AM,25.9,7.2,45,29.93,10.0,NW,21.9,32.2,N/A,,Clear,320,2013-03-18 16:55:00
12:15 PM,26.4,7.0,44,29.93,10.0,WNW,24.2,32.2,N/A,,Clear,300,2013-03-18 17:15:00
12:35 PM,27.7,6.8,41,29.94,10.0,NW,24.2,32.2,N/A,,Clear,320,2013-03-18 17:35:00
12:55 PM,28.6,5.7,38,29.94,10.0,NW,26.5,32.2,N/A,,Clear,310,2013-03-18 17:55:00
1:15 PM,30.0,5.0,35,29.93,10.0,NW,29.9,34.5,N/A,,Clear,320,2013-03-18 18:15:00
1:35 PM,30.6,5.2,34,29.93,10.0,NW,28.8,35.7,N/A,,Clear,310,2013-03-18 18:35:00
1:55 PM,30.6,5.0,34,29.93,10.0,NW,26.5,36.8,N/A,,Clear,310,2013-03-18 18:55:00
2:15 PM,31.8,5.4,33,29.93,10.0,NW,25.3,33.4,N/A,,Clear,320,2013-03-18 19:15:00
2:35 PM,31.8,5.7,33,29.93,10.0,NW,21.9,31.1,N/A,,Clear,310,2013-03-18 19:35:00
2:55 PM,32.5,5.9,33,29.92,10.0,NW,26.5,33.4,N/A,,Clear,320,2013-03-18 19:55:00
3:15 PM,33.4,5.9,31,29.92,10.0,WNW,21.9,32.2,N/A,,Clear,300,2013-03-18 20:15:00
3:35 PM,33.6,5.2,30,29.92,10.0,NW,23.0,34.5,N/A,,Clear,310,2013-03-18 20:35:00
3:55 PM,34.9,4.8,28,29.91,10.0,NW,24.2,29.9,N/A,,Clear,310,2013-03-18 20:55:00
4:15 PM,35.8,3.7,26,29.92,10.0,WNW,24.2,31.1,N/A,,Clear,300,2013-03-18 21:15:00
4:35 PM,36.1,3.2,25,29.91,10.0,WNW,20.7,28.8,N/A,,Clear,300,2013-03-18 21:35:00
4:55 PM,36.3,2.7,24,29.92,10.0,NNW,18.4,27.6,N/A,,Clear,330,2013-03-18 21:55:00
5:15 PM,37.0,-0.0,21,29.92,10.0,NW,18.4,25.3,N/A,,Clear,320,2013-03-18 22:15:00
5:35 PM,36.7,-1.8,20,29.93,10.0,NW,25.3,28.8,N/A,,Clear,320,2013-03-18 22:35:00
5:55 PM,36.5,-1.8,20,29.93,10.0,NW,16.1,25.3,N/A,,Clear,320,2013-03-18 22:55:00
6:15 PM,36.7,-0.2,21,29.93,10.0,NW,20.7,24.2,N/A,,Clear,310,2013-03-18 23:15:00
6:35 PM,36.1,0.5,22,29.94,10.0,NNW,15.0,23.0,N/A,,Clear,330,2013-03-18 23:35:00
6:55 PM,35.1,-0.9,22,29.94,10.0,NNW,15.0,25.3,N/A,,Clear,330,2013-03-18 23:55:00
7:15 PM,34.2,1.8,25,29.95,10.0,NNW,12.7,-,N/A,,Clear,340,2013-03-19 00:15:00
7:35 PM,32.4,3.0,29,29.95,10.0,NNW,10.4,-,N/A,,Clear,340,2013-03-19 00:35:00
7:55 PM,28.8,6.3,39,29.95,10.0,North,5.8,-,N/A,,Clear,360,2013-03-19 00:55:00
8:15 PM,27.5,7.9,44,29.94,10.0,North,6.9,-,N/A,,Clear,10,2013-03-19 01:15:00
8:35 PM,26.6,9.5,49,29.94,10.0,North,4.6,-,N/A,,Clear,10,2013-03-19 01:35:00
8:55 PM,29.3,7.0,39,29.96,10.0,Calm,Calm,-,N/A,,Clear,0,2013-03-19 01:55:00
9:15 PM,27.7,11.7,51,29.96,10.0,Calm,Calm,-,N/A,,Clear,0,2013-03-19 02:15:00
9:35 PM,29.1,10.2,45,29.97,10.0,Calm,Calm,-,N/A,,Clear,0,2013-03-19 02:35:00
9:55 PM,28.0,16.5,62,29.97,10.0,Calm,Calm,-,N/A,,Clear,0,2013-03-19 02:55:00
10:15 PM,27.3,15.8,62,29.98,10.0,Calm,Calm,-,N/A,,Clear,0,2013-03-19 03:15:00
10:35 PM,26.6,17.6,69,29.98,10.0,Calm,Calm,-,N/A,,Clear,0,2013-03-19 03:35:00
10:55 PM,25.2,16.5,70,29.99,10.0,Calm,Calm,-,N/A,,Clear,0,2013-03-19 03:55:00
11:15 PM,26.6,15.8,64,29.99,10.0,Calm,Calm,-,N/A,,Clear,0,2013-03-19 04:15:00
11:35 PM,25.3,16.7,70,29.99,10.0,Calm,Calm,-,N/A,,Clear,0,2013-03-19 04:35:00
11:55 PM,26.2,15.1,63,29.99,10.0,Calm,Calm,-,N/A,,Clear,0,2013-03-19 04:55:00